Weather in Seletkan

Russia / Amur Oblast     51°55′08″N   127°54′16″E
temp.,
°C
wind,
m/s
gust,
m/s
humid.,
%
clouds,
%
prec.,
mm/h
press.,
hPa
HPBL,
m
28 february, sun
sun2800:00−14wnw71585100 0.0 1012639
03:00−18wnw6158550 0.0 1016521
06:00−20wnw615840 0.0 1020445
09:00−20wnw714800 0.0 1023568
12:00−17wnw812730 0.0 1025965
15:00−16nw8127426 0.0 10261316
18:00−19nw51279100 0.0 1028750
21:00−22nw5128284 0.0 1030472
1 march, mon
mon100:00−24wnw513790 0.0 1031421
03:00−25wnw512750 0.0 1032298
06:00−27wnw511750 0.0 1033209
09:00−24wnw611700 0.0 1033417
12:00−20wnw69660 0.0 1033983
15:00−18wnw69670 0.0 10311331
18:00−22nw348039 0.0 103132
21:00−26w238436 0.0 103220
2 march, tue
tue200:00−28wnw23850 0.0 103219
03:00−28w238527 0.0 103219
06:00−29w228739 0.0 103119
09:00−24sw119246 0.0 103177
12:00−19s238386 0.0 1030664
15:00−17sse348293 0.1 1028785
18:00−21se3596100 0.0 1026108
21:00−21se3795100 0.0 1026210
3 march, wed
wed300:00−21se3798100 0.2 1023262
03:00−20se4997100 0.4 1020309
06:00−20ese4998100 0.3 1017299
09:00−17se5995100 0.6 1014448
12:00−13sse4789100 0.4 1012735
15:00−10ssw3589100 0.9 1009705
18:00−13wsw2392100 0.3 100929
21:00−19nnw489792 0.4 1010148
4 march, thu
thu400:00−21nw4796100 0.0 1011162
03:00−23wnw51091100 0.0 1012228
06:00−27wnw5109165 0.0 1014191
09:00−25wnw5108632 0.0 1016296
12:00−20wnw69820 0.0 1017602
15:00−18nw69791 0.0 1018892
18:00−21nw5108596 0.0 1020439
21:00−24nw6128286 0.0 1024459